Regional Weather Roundup
Issued by NWS

Home | Current Version | Previous Version | Text Only | Print | Product List | Glossary Off
Versions: 1 2 3 4 5 6 7 8 9 10 11 12 13 14 15 16 17 18 19 20 21 22 23 24 25 26 27 28 29 30 31 32 33 34 35 36 37 38 39 40 41 42 43 44 45 46 47 48 49 50

000
ASUS43 KFSD 201902
RWRSD

WEATHER ROUNDUP FOR SOUTH DAKOTA
NATIONAL WEATHER SERVICE SIOUX FALLS SD
200 PM CDT THU JUL 20 2017

NOTE: "FAIR" INDICATES FEW OR NO CLOUDS BELOW 12,000 FEET WITH NO
SIGNIFICANT WEATHER AND/OR OBSTRUCTIONS TO VISIBILITY.


SDZ001>005-009-010-012>017-202000-
NORTHWEST AND NORTH CENTRAL SOUTH DAKOTA

CITY           SKY/WX    TMP DP  RH WIND       PRES   REMARKS
BUFFALO          N/A     96  59  29 S22G37    29.88F HX  95
FAITH            N/A     92  66  42 SE15      29.99F
MOBRIDGE       SUNNY     90  62  39 SE18      29.95F
$$

SDZ012>016-024>037-041>051-057-063-072>074-202000-
SOUTHWEST AND SOUTH CENTRAL SOUTH DAKOTA

CITY           SKY/WX    TMP DP  RH WIND       PRES   REMARKS
RAPID CTY ARPT SUNNY     95  57  27 S18       30.02F
PIERRE         NOT AVBL
CUSTER         SUNNY     85  50  29 SE10G18   30.20F
ELLSWORTH AFB  MOSUNNY   94  57  28 S16G26    30.01F
PHILIP         SUNNY     96  62  32 S8G16     29.97F HX  97
PINE RIDGE     SUNNY     90  63  40 S9        30.07F
SPEARFISH      LGT RAIN  95  54  24 VRB7G18   30.03F
WINNER         FAIR      94  66  39 SE9       30.01S HX  97
$$

SDZ004>011-016>023-039-040-202000-
NORTHEAST SOUTH DAKOTA

CITY           SKY/WX    TMP DP  RH WIND       PRES   REMARKS
ABERDEEN       SUNNY     87  67  51 SE14      30.01F
WATERTOWN      SUNNY     82  66  58 S10       30.05F
BROOKINGS      CLOUDY    84  65  52 SE10      30.05F
SISSETON         N/A     87  66  49 S7        30.01F
$$

SDZ017-020-022-023-036>040-048>070-202000-
SOUTHEAST SOUTH DAKOTA

CITY           SKY/WX    TMP DP  RH WIND       PRES   REMARKS
SIOUX FALLS    PTSUNNY   86  72  62 E14       30.02F
HURON          CLOUDY    87  65  47 SE12      29.99F
CHAMBERLAIN    SUNNY     92  71  49 E10G18    29.99F HX  99
MITCHELL       CLOUDY    87  70  56 SE15      29.99F
YANKTON        CLOUDY    82  72  71 E5        30.02S
$$

ABBREVIATIONS USED IN REMARKS
   TC - TEMPERATURE IN CELSIUS
  WCI - WIND CHILL INDEX
   HX - HEAT INDEX
  VSB - VISIBILITY





USA.gov is the U.S. government's official web portal to all federal, state and local government web resources and services.